Time,TemperatureF,DewpointF,PressureIn,WindDirection,WindDirectionDegrees,WindSpeedMPH,WindSpeedGustMPH,Humidity,HourlyPrecipIn,Conditions,Clouds,dailyrainin,SoftwareType,DateUTC
2013-03-03 00:04:00,51.4,26.0,30.27,SSE,159,6.0,8.0,38,0.00,,,0.00,weatherlink.com 1.10,2013-03-03 06:04:00,
2013-03-03 00:19:00,51.5,26.0,30.28,SE,132,5.0,8.0,37,0.00,,,0.00,weatherlink.com 1.10,2013-03-03 06:19:00,
2013-03-03 00:34:00,50.9,26.0,30.27,SE,141,3.0,8.0,38,0.00,,,0.00,weatherlink.com 1.10,2013-03-03 06:34:00,
2013-03-03 00:49:00,50.3,25.0,30.27,SE,146,4.0,9.0,38,0.00,,,0.00,weatherlink.com 1.10,2013-03-03 06:49:00,
2013-03-03 01:05:00,49.9,26.0,30.27,SSE,160,7.0,8.0,39,0.00,,,0.00,weatherlink.com 1.10,2013-03-03 07:05:00,
2013-03-03 01:20:00,49.8,26.0,30.27,SSE,155,3.0,8.0,39,0.00,,,0.00,weatherlink.com 1.10,2013-03-03 07:20:00,
2013-03-03 01:35:00,49.4,25.0,30.27,SE,131,4.0,7.0,39,0.00,,,0.00,weatherlink.com 1.10,2013-03-03 07:35:00,
2013-03-03 01:50:00,49.2,25.0,30.27,SSE,160,4.0,8.0,39,0.00,,,0.00,weatherlink.com 1.10,2013-03-03 07:50:00,
2013-03-03 02:05:00,48.8,25.0,30.27,SE,144,3.0,8.0,39,0.00,,,0.00,weatherlink.com 1.10,2013-03-03 08:05:00,
2013-03-03 02:20:00,48.5,24.0,30.27,South,187,4.0,7.0,39,0.00,,,0.00,weatherlink.com 1.10,2013-03-03 08:20:00,
2013-03-03 02:35:00,48.3,24.0,30.26,SSE,165,4.0,8.0,39,0.00,,,0.00,weatherlink.com 1.10,2013-03-03 08:35:00,
2013-03-03 02:50:00,48.1,24.0,30.25,SSE,148,6.0,10.0,39,0.00,,,0.00,weatherlink.com 1.10,2013-03-03 08:50:00,
2013-03-03 03:05:00,47.5,25.0,30.25,SSE,161,4.0,8.0,41,0.00,,,0.00,weatherlink.com 1.10,2013-03-03 09:05:00,
2013-03-03 03:20:00,46.7,25.0,30.24,South,180,2.0,6.0,42,0.00,,,0.00,weatherlink.com 1.10,2013-03-03 09:20:00,
2013-03-03 03:35:00,45.8,24.0,30.23,SSE,148,1.0,4.0,43,0.00,,,0.00,weatherlink.com 1.10,2013-03-03 09:35:00,
2013-03-03 03:50:00,45.1,25.0,30.23,SW,215,1.0,3.0,45,0.00,,,0.00,weatherlink.com 1.10,2013-03-03 09:50:00,
2013-03-03 04:05:00,44.2,24.0,30.24,West,269,0.0,3.0,46,0.00,,,0.00,weatherlink.com 1.10,2013-03-03 10:05:00,
2013-03-03 04:20:00,43.0,24.0,30.24,West,279,0.0,1.0,48,0.00,,,0.00,weatherlink.com 1.10,2013-03-03 10:20:00,
2013-03-03 04:35:00,41.5,24.0,30.25,West,280,0.0,1.0,51,0.00,,,0.00,weatherlink.com 1.10,2013-03-03 10:35:00,
2013-03-03 04:50:00,40.6,24.0,30.25,West,280,0.0,1.0,53,0.00,,,0.00,weatherlink.com 1.10,2013-03-03 10:50:00,
2013-03-03 05:05:00,39.1,24.0,30.25,West,279,0.0,0.0,55,0.00,,,0.00,weatherlink.com 1.10,2013-03-03 11:05:00,
2013-03-03 05:20:00,38.5,25.0,30.24,ENE,73,1.0,1.0,58,0.00,,,0.00,weatherlink.com 1.10,2013-03-03 11:20:00,
2013-03-03 05:35:00,37.3,24.0,30.24,East,79,0.0,0.0,59,0.00,,,0.00,weatherlink.com 1.10,2013-03-03 11:35:00,
2013-03-03 05:50:00,36.0,24.0,30.25,East,79,0.0,0.0,62,0.00,,,0.00,weatherlink.com 1.10,2013-03-03 11:50:00,
2013-03-03 06:06:00,35.4,24.0,30.25,East,79,0.0,0.0,64,0.00,,,0.00,weatherlink.com 1.10,2013-03-03 12:06:00,
2013-03-03 06:21:00,34.9,25.0,30.25,East,79,0.0,0.0,66,0.00,,,0.00,weatherlink.com 1.10,2013-03-03 12:21:00,
2013-03-03 06:36:00,34.9,24.0,30.25,East,79,0.0,0.0,64,0.00,,,0.00,weatherlink.com 1.10,2013-03-03 12:36:00,
2013-03-03 06:51:00,34.6,24.0,30.25,East,79,0.0,0.0,65,0.00,,,0.00,weatherlink.com 1.10,2013-03-03 12:51:00,
2013-03-03 07:06:00,34.7,25.0,30.26,East,79,0.0,0.0,67,0.00,,,0.00,weatherlink.com 1.10,2013-03-03 13:06:00,
2013-03-03 07:21:00,38.4,26.0,30.25,ESE,106,0.0,0.0,61,0.00,,,0.00,weatherlink.com 1.10,2013-03-03 13:21:00,
2013-03-03 07:36:00,41.7,27.0,30.26,ESE,106,0.0,0.0,56,0.00,,,0.00,weatherlink.com 1.10,2013-03-03 13:36:00,
2013-03-03 07:51:00,44.5,28.0,30.26,ESE,105,0.0,0.0,52,0.00,,,0.00,weatherlink.com 1.10,2013-03-03 13:51:00,
2013-03-03 08:06:00,45.9,28.0,30.26,East,84,0.0,1.0,49,0.00,,,0.00,weatherlink.com 1.10,2013-03-03 14:06:00,
2013-03-03 08:21:00,48.9,29.0,30.26,East,89,0.0,1.0,47,0.00,,,0.00,weatherlink.com 1.10,2013-03-03 14:21:00,
2013-03-03 08:36:00,52.5,30.0,30.26,ESE,104,1.0,1.0,43,0.00,,,0.00,weatherlink.com 1.10,2013-03-03 14:36:00,
2013-03-03 08:51:00,54.0,33.0,30.26,South,170,2.0,4.0,45,0.00,,,0.00,weatherlink.com 1.10,2013-03-03 14:51:00,
2013-03-03 09:06:00,55.0,35.0,30.26,SW,217,4.0,9.0,47,0.00,,,0.00,weatherlink.com 1.10,2013-03-03 15:06:00,
2013-03-03 09:21:00,55.8,36.0,30.26,SSW,204,6.0,10.0,48,0.00,,,0.00,weatherlink.com 1.10,2013-03-03 15:21:00,
2013-03-03 09:36:00,57.2,37.0,30.25,South,176,4.0,9.0,48,0.00,,,0.00,weatherlink.com 1.10,2013-03-03 15:36:00,
2013-03-03 09:51:00,58.0,38.0,30.25,SSE,163,8.0,13.0,48,0.00,,,0.00,weatherlink.com 1.10,2013-03-03 15:51:00,
2013-03-03 10:06:00,59.3,38.0,30.24,South,179,7.0,13.0,45,0.00,,,0.00,weatherlink.com 1.10,2013-03-03 16:06:00,
2013-03-03 10:21:00,59.7,37.0,30.24,SSW,198,8.0,12.0,43,0.00,,,0.00,weatherlink.com 1.10,2013-03-03 16:21:00,
2013-03-03 10:36:00,61.2,38.0,30.23,SW,224,7.0,12.0,42,0.00,,,0.00,weatherlink.com 1.10,2013-03-03 16:36:00,
2013-03-03 10:51:00,62.1,37.0,30.23,SSW,194,5.0,14.0,40,0.00,,,0.00,weatherlink.com 1.10,2013-03-03 16:51:00,
2013-03-03 11:06:00,63.5,39.0,30.21,SSW,202,7.0,11.0,40,0.00,,,0.00,weatherlink.com 1.10,2013-03-03 17:06:00,
2013-03-03 11:21:00,64.6,38.0,30.20,South,177,7.0,15.0,38,0.00,,,0.00,weatherlink.com 1.10,2013-03-03 17:21:00,
2013-03-03 11:36:00,65.2,37.0,30.20,South,177,6.0,14.0,36,0.00,,,0.00,weatherlink.com 1.10,2013-03-03 17:36:00,
2013-03-03 11:51:00,66.2,38.0,30.19,SW,217,5.0,15.0,35,0.00,,,0.00,weatherlink.com 1.10,2013-03-03 17:51:00,
2013-03-03 12:06:00,67.3,38.0,30.17,South,173,7.0,17.0,34,0.00,,,0.00,weatherlink.com 1.10,2013-03-03 18:06:00,
2013-03-03 12:21:00,67.7,37.0,30.16,South,188,6.0,17.0,33,0.00,,,0.00,weatherlink.com 1.10,2013-03-03 18:21:00,
2013-03-03 12:37:00,68.3,36.0,30.15,SW,221,8.0,16.0,31,0.00,,,0.00,weatherlink.com 1.10,2013-03-03 18:37:00,
2013-03-03 12:52:00,69.8,37.0,30.14,South,186,12.0,17.0,30,0.00,,,0.00,weatherlink.com 1.10,2013-03-03 18:52:00,
2013-03-03 13:07:00,70.6,36.0,30.12,SSE,165,11.0,15.0,28,0.00,,,0.00,weatherlink.com 1.10,2013-03-03 19:07:00,
2013-03-03 13:22:00,71.1,37.0,30.11,SE,135,9.0,15.0,29,0.00,,,0.00,weatherlink.com 1.10,2013-03-03 19:22:00,
2013-03-03 13:37:00,71.7,38.0,30.10,SSE,163,11.0,18.0,29,0.00,,,0.00,weatherlink.com 1.10,2013-03-03 19:37:00,
2013-03-03 13:52:00,72.2,37.0,30.09,SW,214,17.0,17.0,28,0.00,,,0.00,weatherlink.com 1.10,2013-03-03 19:52:00,
2013-03-03 14:07:00,73.2,38.0,30.08,WSW,243,8.0,17.0,28,0.00,,,0.00,weatherlink.com 1.10,2013-03-03 20:07:00,
2013-03-03 14:22:00,73.9,39.0,30.07,SSE,162,12.0,16.0,28,0.00,,,0.00,weatherlink.com 1.10,2013-03-03 20:22:00,
2013-03-03 14:37:00,74.5,37.0,30.06,South,179,14.0,16.0,26,0.00,,,0.00,weatherlink.com 1.10,2013-03-03 20:37:00,
2013-03-03 14:52:00,75.1,38.0,30.05,South,191,3.0,16.0,26,0.00,,,0.00,weatherlink.com 1.10,2013-03-03 20:52:00,
2013-03-03 15:08:00,75.3,36.0,30.04,South,174,5.0,21.0,24,0.00,,,0.00,weatherlink.com 1.10,2013-03-03 21:08:00,
2013-03-03 15:22:00,76.4,36.0,30.03,SSW,203,5.0,19.0,23,0.00,,,0.00,weatherlink.com 1.10,2013-03-03 21:22:00,
2013-03-03 15:37:00,76.9,35.0,30.02,SSE,162,13.0,14.0,22,0.00,,,0.00,weatherlink.com 1.10,2013-03-03 21:37:00,
2013-03-03 15:52:00,76.9,34.0,30.02,SSE,162,9.0,19.0,21,0.00,,,0.00,weatherlink.com 1.10,2013-03-03 21:52:00,
2013-03-03 16:07:00,76.8,34.0,30.00,SSW,197,8.0,18.0,21,0.00,,,0.00,weatherlink.com 1.10,2013-03-03 22:07:00,
2013-03-03 16:22:00,77.0,34.0,30.00,South,184,8.0,18.0,21,0.00,,,0.00,weatherlink.com 1.10,2013-03-03 22:22:00,
2013-03-03 16:38:00,77.2,35.0,29.99,South,188,4.0,15.0,22,0.00,,,0.00,weatherlink.com 1.10,2013-03-03 22:38:00,
2013-03-03 16:52:00,77.3,36.0,29.99,SSW,200,7.0,15.0,22,0.00,,,0.00,weatherlink.com 1.10,2013-03-03 22:52:00,
2013-03-03 17:07:00,76.8,35.0,29.98,SSE,167,9.0,17.0,22,0.00,,,0.00,weatherlink.com 1.10,2013-03-03 23:07:00,
2013-03-03 17:22:00,76.9,34.0,29.98,SSE,162,9.0,17.0,21,0.00,,,0.00,weatherlink.com 1.10,2013-03-03 23:22:00,
2013-03-03 17:38:00,76.2,35.0,29.97,SSE,163,6.0,14.0,22,0.00,,,0.00,weatherlink.com 1.10,2013-03-03 23:38:00,
2013-03-03 17:53:00,75.8,34.0,29.97,South,183,9.0,15.0,22,0.00,,,0.00,weatherlink.com 1.10,2013-03-03 23:53:00,
2013-03-03 18:08:00,75.2,34.0,29.97,South,177,8.0,13.0,22,0.00,,,0.00,weatherlink.com 1.10,2013-03-04 00:08:00,
2013-03-03 18:23:00,74.1,34.0,29.97,SSE,163,6.0,12.0,23,0.00,,,0.00,weatherlink.com 1.10,2013-03-04 00:23:00,
2013-03-03 18:38:00,72.1,33.0,29.97,SSE,159,4.0,8.0,24,0.00,,,0.00,weatherlink.com 1.10,2013-03-04 00:38:00,
2013-03-03 18:54:00,70.7,34.0,29.98,SE,143,8.0,15.0,26,0.00,,,0.00,weatherlink.com 1.10,2013-03-04 00:54:00,
2013-03-03 19:08:00,69.2,44.0,29.98,ESE,120,12.0,14.0,40,0.00,,,0.00,weatherlink.com 1.10,2013-03-04 01:08:00,
2013-03-03 19:23:00,67.8,45.0,29.97,South,173,8.0,18.0,44,0.00,,,0.00,weatherlink.com 1.10,2013-03-04 01:23:00,
2013-03-03 19:38:00,66.8,45.0,29.98,SSE,166,7.0,16.0,46,0.00,,,0.00,weatherlink.com 1.10,2013-03-04 01:38:00,
2013-03-03 19:53:00,66.0,45.0,29.97,SE,136,6.0,19.0,47,0.00,,,0.00,weatherlink.com 1.10,2013-03-04 01:53:00,
2013-03-03 20:08:00,65.3,45.0,29.97,SE,136,8.0,15.0,48,0.00,,,0.00,weatherlink.com 1.10,2013-03-04 02:08:00,
2013-03-03 20:23:00,64.2,44.0,29.97,SE,128,7.0,18.0,49,0.00,,,0.00,weatherlink.com 1.10,2013-03-04 02:23:00,
2013-03-03 20:38:00,63.2,45.0,29.97,SE,136,8.0,16.0,51,0.00,,,0.00,weatherlink.com 1.10,2013-03-04 02:38:00,
2013-03-03 20:53:00,62.3,44.0,29.97,SSE,149,7.0,17.0,52,0.00,,,0.00,weatherlink.com 1.10,2013-03-04 02:53:00,
2013-03-03 21:08:00,61.7,44.0,29.98,South,176,6.0,17.0,53,0.00,,,0.00,weatherlink.com 1.10,2013-03-04 03:08:00,
2013-03-03 21:23:00,61.2,45.0,29.98,SSE,150,10.0,20.0,55,0.00,,,0.00,weatherlink.com 1.10,2013-03-04 03:23:00,
2013-03-03 21:38:00,60.5,44.0,29.98,SE,141,14.0,20.0,55,0.00,,,0.00,weatherlink.com 1.10,2013-03-04 03:38:00,
2013-03-03 21:53:00,60.3,44.0,29.97,SSE,148,10.0,20.0,55,0.00,,,0.00,weatherlink.com 1.10,2013-03-04 03:53:00,
2013-03-03 22:08:00,59.9,44.0,29.97,SSE,150,9.0,20.0,56,0.00,,,0.00,weatherlink.com 1.10,2013-03-04 04:08:00,
2013-03-03 22:23:00,59.5,44.0,29.96,SSE,150,10.0,19.0,57,0.00,,,0.00,weatherlink.com 1.10,2013-03-04 04:23:00,
2013-03-03 22:38:00,59.1,44.0,29.96,South,176,13.0,16.0,58,0.00,,,0.00,weatherlink.com 1.10,2013-03-04 04:38:00,
2013-03-03 22:53:00,58.8,44.0,29.96,SSE,167,8.0,17.0,59,0.00,,,0.00,weatherlink.com 1.10,2013-03-04 04:53:00,
2013-03-03 23:08:00,58.9,45.0,29.96,SSE,159,8.0,19.0,60,0.00,,,0.00,weatherlink.com 1.10,2013-03-04 05:08:00,
2013-03-03 23:23:00,58.8,45.0,29.96,South,181,8.0,15.0,61,0.00,,,0.00,weatherlink.com 1.10,2013-03-04 05:23:00,
2013-03-03 23:38:00,58.8,46.0,29.95,South,179,8.0,17.0,62,0.00,,,0.00,weatherlink.com 1.10,2013-03-04 05:38:00,
2013-03-03 23:53:00,58.7,46.0,29.95,SSE,150,10.0,18.0,63,0.00,,,0.00,weatherlink.com 1.10,2013-03-04 05:53:00,